sat.trackr.live / text

‹ back to catalog

STARLINK-35520

NORAD 66133 · 2025-237V

PAYLOAD ACTIVE UNKNOWN

§ Identity

Operator
Country
US
Launch date
2025-10-22
Launch site
AFWTR
Launch vehicle
Mass (kg)
RCS (m²)

Purposes: comms

External: N2YO · Heavens-Above · Gunter

§ Orbital elements

Epoch: 2026-09-20T05:42:59.526144Z

Period
93.85 min
Inclination
53.1566°
Eccentricity
0.0001476
Mean motion
15.34408204 rev/d
Perigee alt
461.7 km
Apogee alt
463.7 km
Semi-major
6,840.8 km
B*
3.3196e-4
RAAN
212.6445°
Arg perigee
90.2715°
Mean anomaly
269.8457°
Rev number
5,244

§ Raw data

STARLINK-355201 66133U 25237V   26263.23818896  .00010859  00000+0  33196-3 0  99992 66133  53.1566 212.6445 0001476  90.2715 269.8457 15.34408204 52440

JSON: /api/v1/satellites/66133 · /tle

For live sub-satellite position, see the globe view (requires WebGL).

§ Visibility from observer

Set your observer location to see the next 7 days of passes ≥ 10°. The values pass through the URL so the page stays shareable.

No JS? Fill the form by hand. The geolocation button needs JavaScript.